Time_in_sec,Latitude,Longitude,Altitude,Nbsat_max_qualitysignal,Nbsat_locked,valid_data
1326900340.42062330,47.37649155,8.55023289,488.64151001,4,9,1
1326900425.56063342,47.37643433,8.55021763,492.53646851,0,9,1
1326900425.61281943,47.37643433,8.55021667,492.49066162,0,9,1
1326900425.66149902,47.37643814,8.55021667,492.27499390,3,8,1
1326900425.71352959,47.37643814,8.55021667,492.23800659,3,8,1
1326900425.76150918,47.37643814,8.55021667,492.19149780,3,8,1
1326900425.82153893,47.37643814,8.55021667,492.14492798,3,8,1
1326900425.86259675,47.37643814,8.55021667,492.08901978,3,8,1
1326900425.91347742,47.37643814,8.55021572,491.90267944,3,8,1
1326900425.96052814,47.37643814,8.55021572,491.85546875,3,8,1
1326900426.01363921,47.37643814,8.55021572,491.80822754,3,8,1
1326900426.06153846,47.37643814,8.55021572,491.76089478,3,8,1
1326900426.11367869,47.37644196,8.55021572,491.71356201,3,8,1
1326900426.16151261,47.37644196,8.55021477,491.53747559,3,8,1
1326900426.21263862,47.37644196,8.55021477,491.49209595,3,8,1
1326900426.26067090,47.37644196,8.55021477,491.44412231,3,8,1
1326900426.31347609,47.37644196,8.55021381,491.39614868,3,8,1
1326900426.36129522,47.37644196,8.55021381,491.34811401,3,8,1
1326900426.41252494,47.37644577,8.55021381,491.19372559,3,8,1
1326900426.46368122,47.37644577,8.55021286,491.15969849,3,8,1
1326900426.51261950,47.37644577,8.55021286,491.11129761,3,8,1
1326900426.56152129,47.37644577,8.55021286,491.06286621,3,8,1
1326900426.61264181,47.37644577,8.55021286,491.01440430,3,8,1
1326900426.66142273,47.37644577,8.55021286,490.88369751,3,8,1
1326900426.71585345,47.37644577,8.55021286,490.84664917,3,8,1
1326900426.76151586,47.37644577,8.55021286,490.79785156,3,8,1
1326900426.81300282,47.37644577,8.55021286,490.74899292,3,8,1
1326900426.86156654,47.37644958,8.55021286,490.70010376,3,8,1
1326900426.91246986,47.37644958,8.55021286,490.58990479,3,8,1
1326900426.96047497,47.37644958,8.55021286,490.54995728,3,8,1
1326900427.01326966,47.37644958,8.55021286,490.50076294,3,8,1
1326900427.06055880,47.37644958,8.55021191,490.45153809,3,8,1
1326900427.11347866,47.37644958,8.55021191,490.40228271,3,8,1
1326900427.16050506,47.37644958,8.55021286,490.31488037,3,8,1
1326900427.21310425,47.37644958,8.55021286,490.27853394,3,8,1
1326900427.26950002,47.37644958,8.55021286,490.22915649,3,8,1
1326900427.31316280,47.37644958,8.55021286,490.16983032,3,8,1
1326900427.36152554,47.37644958,8.55021286,490.13024902,3,8,1
1326900427.41268086,47.37644958,8.55021286,490.08071899,3,8,1
1326900427.46061158,47.37644958,8.55021286,490.03134155,3,8,1
1326900427.51347566,47.37644958,8.55021286,489.98181152,3,8,1
1326900427.56136131,47.37644958,8.55021286,489.93225098,3,8,1
1326900427.61315680,47.37645340,8.55021286,489.88269043,3,8,1
1326900427.66113997,47.37645340,8.55021381,489.83416748,3,8,1
1326900427.71358871,47.37645340,8.55021381,489.80114746,3,8,1
1326900427.76154304,47.37645340,8.55021381,489.75161743,3,8,1
1326900427.81349969,47.37645340,8.55021381,489.70202637,3,8,1
1326900427.86056781,47.37645340,8.55021286,489.65243530,3,8,1
1326900427.91380000,47.37645340,8.55021381,489.61572266,3,8,1
1326900427.96064377,47.37645340,8.55021381,489.58316040,3,8,1
1326900428.01351881,47.37645340,8.55021381,489.53359985,3,8,1
1326900428.06149364,47.37645340,8.55021381,489.48400879,3,8,1
1326900428.11262321,47.37645340,8.55021381,489.43435669,3,8,1
1326900428.16152024,47.37645721,8.55021381,489.40982056,3,8,1
1326900428.21272445,47.37645340,8.55021381,489.37753296,3,8,1
1326900428.26065540,47.37645340,8.55021381,489.32797241,3,8,1
1326900428.31347775,47.37645721,8.55021381,489.27838135,3,8,1
1326900428.36063814,47.37645721,8.55021381,489.22875977,3,8,1
1326900428.41251898,47.37645721,8.55021381,489.17910767,3,8,1
1326900428.46152115,47.37645721,8.55021477,489.18536377,3,8,1
1326900428.51364326,47.37645721,8.55021477,489.13589478,3,8,1
1326900428.56060743,47.37645721,8.55021477,489.08642578,3,8,1
1326900428.61348319,47.37645721,8.55021477,489.03689575,3,8,1
1326900428.66072655,47.37645721,8.55021572,489.03417969,3,8,1
1326900428.71348071,47.37645721,8.55021477,489.00479126,3,8,1
1326900428.76154613,47.37645721,8.55021477,488.95547485,3,8,1
1326900428.81353188,47.37645721,8.55021477,488.90609741,3,8,1
1326900428.86950564,47.37645721,8.55021477,488.85668945,3,8,1
1326900428.91298938,47.37645721,8.55021477,488.79736328,3,8,1
1326900428.96452975,47.37645721,8.55021477,488.85079956,3,8,1
1326900429.01353216,47.37645721,8.55021477,488.80172729,3,8,1
1326900429.06166553,47.37645721,8.55021477,488.75259399,3,8,1
1326900429.11350608,47.37645721,8.55021477,488.70343018,3,8,1
1326900429.16062284,47.37646103,8.55021572,488.72879028,3,8,1
1326900429.20974493,47.37645721,8.55021477,488.69537354,3,8,1
1326900429.26953244,47.37645721,8.55021477,488.64648438,3,8,1
1326900429.30963874,47.37645721,8.55021477,488.58776855,3,8,1
1326900429.36262703,47.37646103,8.55021477,488.54858398,3,8,1
1326900429.41272163,47.37646103,8.55021477,488.49960327,3,8,1
1326900429.46182156,47.37646103,8.55021477,488.55612183,3,8,1
1326900429.50953841,47.37646103,8.55021477,488.50756836,3,8,1
1326900429.56062078,47.37646103,8.55021477,488.45895386,3,8,1
1326900429.61254525,47.37646103,8.55021477,488.41030884,3,8,1
1326900429.66154623,47.37646103,8.55021572,488.45007324,2,8,1
1326900429.71355629,47.37646103,8.55021381,488.41870117,2,8,1
1326900429.76225162,47.37646103,8.55021381,488.37039185,2,8,1
1326900429.81343007,47.37646103,8.55021381,488.32205200,2,8,1
1326900429.86050463,47.37646103,8.55021381,488.27365112,2,8,1
1326900429.91350341,47.37646103,8.55021477,488.31433105,2,8,1
1326900429.96149898,47.37646103,8.55021381,488.28436279,2,8,1
1326900430.01254725,47.37646103,8.55021381,488.23629761,2,8,1
1326900430.06151843,47.37646103,8.55021381,488.18823242,2,8,1
1326900430.11254096,47.37646103,8.55021381,488.14013672,2,8,1
1326900430.16055536,47.37646103,8.55021477,488.18200684,2,8,1
1326900430.21285415,47.37646103,8.55021572,488.15121460,2,8,1
1326900430.26061320,47.37646103,8.55021572,488.10342407,2,8,1
1326900430.31051135,47.37646103,8.55021572,488.05563354,2,8,1
1326900430.36052203,47.37646103,8.55021477,488.00778198,2,8,1
1326900430.41251636,47.37646103,8.55021477,487.95989990,2,8,1
1326900430.46330595,47.37646103,8.55021572,488.01953125,2,8,1
1326900430.51351833,47.37646103,8.55021572,487.97204590,2,8,1
1326900430.56156874,47.37646103,8.55021572,487.92449951,2,8,1
1326900430.61314631,47.37646103,8.55021572,487.87692261,2,8,1
1326900430.66154146,47.37646484,8.55021572,487.92202759,2,8,1
1326900430.71347499,47.37646103,8.55021572,487.88906860,2,8,1
1326900430.76061320,47.37646103,8.55021572,487.84179688,2,8,1
1326900430.81356764,47.37646103,8.55021572,487.79452515,2,8,1
1326900430.87255478,47.37646103,8.55021572,487.74719238,2,8,1
1326900430.91352487,47.37646103,8.55021572,487.69030762,2,8,1
1326900430.96155262,47.37646103,8.55021667,487.76119995,2,8,1
1326900431.01295948,47.37646103,8.55021667,487.71417236,2,8,1
1326900431.06105137,47.37646103,8.55021667,487.66711426,2,8,1
1326900431.11347556,47.37646103,8.55021667,487.62002563,2,8,1
1326900431.16053581,47.37646103,8.55021667,487.57290649,2,8,1
1326900431.21305013,47.37646103,8.55021763,487.63330078,2,8,1
1326900431.26150799,47.37646103,8.55021763,487.58654785,2,8,1
1326900431.31272721,47.37646103,8.55021763,487.53979492,2,8,1
1326900431.36151409,47.37646103,8.55021763,487.49295044,2,8,1
1326900431.41264343,47.37646103,8.55021763,487.44607544,2,8,1
1326900431.46107817,47.37646103,8.55021858,487.50561523,2,8,1
1326900431.51274371,47.37646103,8.55021858,487.45907593,2,8,1
1326900431.56152749,47.37646103,8.55021858,487.41250610,2,8,1
1326900431.61354327,47.37646103,8.55021858,487.36584473,2,8,1
1326900431.66097760,47.37646103,8.55021858,487.31921387,2,8,1
1326900431.71297169,47.37646103,8.55021858,487.38122559,2,8,1
1326900431.76152229,47.37646103,8.55021858,487.33499146,2,8,1
1326900431.81350923,47.37646103,8.55021858,487.28866577,2,8,1
1326900431.86165714,47.37646103,8.55021858,487.24234009,2,8,1
1326900431.91347456,47.37646103,8.55021858,487.19595337,2,8,1
1326900431.96150398,47.37646484,8.55021858,487.24957275,2,8,1
1326900432.01353407,47.37646484,8.55021858,487.20352173,2,8,1
1326900432.06949186,47.37646484,8.55021858,487.15744019,2,8,1
1326900432.11251950,47.37646484,8.55021858,487.10208130,2,8,1
1326900432.16149259,47.37646484,8.55021858,487.06512451,2,8,1
1326900432.21299338,47.37646484,8.55021858,487.11520386,2,8,1
1326900432.26150417,47.37646484,8.55021858,487.06936646,2,8,1
1326900432.31377196,47.37646484,8.55021858,487.02349854,2,8,1
1326900432.36151052,47.37646484,8.55021858,486.97760010,2,8,1
1326900432.41258359,47.37646484,8.55021858,486.93164062,2,8,1
1326900432.46158838,47.37646484,8.55021858,486.98348999,2,8,1
1326900432.51045203,47.37646484,8.55021858,486.93792725,2,8,1
1326900432.56151533,47.37646484,8.55021858,486.89230347,2,8,1
1326900432.60947609,47.37646484,8.55021858,486.84664917,2,8,1
1326900432.66056061,47.37646484,8.55021858,486.80096436,2,8,1
1326900432.70948339,47.37646866,8.55021858,486.84805298,2,8,1
1326900432.76117206,47.37646866,8.55021858,486.80267334,2,8,1
1326900432.80946898,47.37646866,8.55021858,486.75726318,2,8,1
1326900432.86151505,47.37646866,8.55021858,486.71182251,2,8,1
1326900432.90950322,47.37646866,8.55021858,486.66632080,2,8,1
1326900432.96453142,47.37646866,8.55021858,486.70938110,2,8,1
1326900433.01298547,47.37646866,8.55021858,486.66424561,2,8,1
1326900433.06048536,47.37646866,8.55021858,486.61904907,2,8,1
1326900433.10950184,47.37646866,8.55021858,486.57382202,2,8,1
1326900433.16132617,47.37646866,8.55021858,486.52859497,2,8,1
1326900433.21250391,47.37646866,8.55021858,486.56372070,2,8,1
1326900433.26132774,47.37646866,8.55021858,486.51876831,2,8,1
1326900433.31353664,47.37646866,8.55021858,486.47381592,2,8,1
1326900433.36153197,47.37646866,8.55021858,486.42880249,2,8,1
1326900433.41350913,47.37646866,8.55021858,486.38372803,2,8,1
1326900433.46247101,47.37647247,8.55021763,486.41806030,2,8,1
1326900433.51348352,47.37647247,8.55021763,486.37322998,2,8,1
1326900433.56236696,47.37647247,8.55021763,486.32839966,2,8,1
1326900433.61323595,47.37647247,8.55021763,486.28350830,2,8,1
1326900433.66903496,47.37647247,8.55021763,486.23858643,2,8,1
1326900433.71255112,47.37647247,8.55021858,486.26547241,2,8,1
1326900433.76150942,47.37647247,8.55021858,486.22979736,2,8,1
1326900433.81282043,47.37647247,8.55021858,486.18515015,2,8,1
1326900433.86104536,47.37647247,8.55021858,486.14047241,2,8,1
1326900433.91358542,47.37647247,8.55021858,486.09573364,2,8,1
1326900433.96106863,47.37647247,8.55021763,486.12606812,2,8,1
1326900434.01002955,47.37647247,8.55021763,486.08157349,2,8,1
1326900434.06951642,47.37647247,8.55021763,486.03704834,2,8,1
1326900434.11264706,47.37647247,8.55021763,485.98355103,2,8,1
1326900434.16150117,47.37647247,8.55021858,486.01632690,2,8,1
1326900434.21351838,47.37647247,8.55021763,485.98419189,2,8,1
1326900434.26064086,47.37647247,8.55021763,485.93984985,2,8,1
1326900434.31352949,47.37647247,8.55021763,485.89550781,2,8,1
1326900434.36062884,47.37647247,8.55021763,485.85110474,2,8,1
1326900434.41253185,47.37647247,8.55021763,485.80667114,2,8,1
1326900434.47257304,47.37647247,8.55021667,485.84466553,2,8,1
1326900434.51358390,47.37647247,8.55021667,485.79165649,2,8,1
1326900434.56152177,47.37647247,8.55021667,485.75631714,2,8,1
1326900434.61418223,47.37647247,8.55021667,485.71206665,2,8,1
1326900434.66063428,47.37647247,8.55021667,485.66781616,2,8,1
1326900434.71349406,47.37647247,8.55021763,485.72045898,2,8,1
1326900434.76147485,47.37647247,8.55021763,485.67651367,2,8,1
1326900434.81251836,47.37647247,8.55021763,485.63253784,2,8,1
1326900434.86155701,47.37647247,8.55021763,485.58853149,2,8,1
1326900434.91253853,47.37647247,8.55021763,485.54446411,2,8,1
1326900434.96055651,47.37647247,8.55021763,485.60070801,2,8,1
1326900435.01350188,47.37647247,8.55021763,485.55694580,2,8,1
1326900435.06157279,47.37647247,8.55021763,485.51315308,2,8,1
1326900435.11350703,47.37647247,8.55021763,485.46929932,2,8,1
1326900435.16062212,47.37647247,8.55021763,485.42541504,2,8,1
1326900435.21254325,47.37647247,8.55021763,485.49475098,2,8,1
1326900435.26952720,47.37647247,8.55021763,485.45123291,2,8,1
1326900435.30955434,47.37647247,8.55021763,485.39895630,2,8,1
1326900435.36050749,47.37647247,8.55021763,485.36410522,2,8,1
1326900435.41254282,47.37647247,8.55021763,485.32049561,2,8,1
1326900435.46060276,47.37647247,8.55021763,485.39312744,2,8,1
1326900435.50951457,47.37647247,8.55021763,485.34994507,2,8,1
1326900435.56050849,47.37647247,8.55021763,485.30673218,2,8,1
1326900435.60964751,47.37647247,8.55021763,485.26345825,2,8,1
1326900435.66949582,47.37647247,8.55021763,485.22018433,2,8,1
1326900435.70968771,47.37647629,8.55021763,485.30224609,2,8,1
1326900435.76055837,47.37647629,8.55021763,485.26803589,2,8,1
1326900435.80951810,47.37647629,8.55021763,485.22525024,2,8,1
1326900435.86050510,47.37647629,8.55021763,485.18240356,2,8,1
1326900435.90949059,47.37647629,8.55021763,485.13949585,2,8,1
1326900435.96052670,47.37647629,8.55021667,485.23571777,2,8,1
1326900436.01276183,47.37647629,8.55021667,485.19335938,2,8,1
1326900436.06152654,47.37647629,8.55021667,485.15093994,2,8,1
1326900436.10952282,47.37647629,8.55021667,485.10852051,2,8,1
1326900436.16056037,47.37647629,8.55021667,485.06604004,2,8,1
1326900436.20933628,47.37647629,8.55021763,485.16671753,2,8,1
1326900436.26056290,47.37647629,8.55021763,485.12475586,2,8,1
1326900436.30951309,47.37647629,8.55021763,485.08276367,2,8,1
1326900436.36052513,47.37647629,8.55021763,485.04071045,2,8,1
1326900436.41254807,47.37647629,8.55021763,484.99862671,2,8,1
1326900436.46150494,47.37647629,8.55021667,485.10122681,2,8,1
1326900436.51308799,47.37647629,8.55021667,485.05969238,2,8,1
1326900436.56055379,47.37647629,8.55021667,485.01809692,2,8,1
1326900436.61308646,47.37647629,8.55021572,484.97647095,2,8,1
1326900436.66056037,47.37647629,8.55021572,484.93478394,2,8,1
1326900436.71347356,47.37647629,8.55021667,485.04525757,2,8,1
1326900436.76150346,47.37647629,8.55021667,485.00411987,2,8,1
1326900436.81366467,47.37647629,8.55021667,484.96295166,2,8,1
1326900436.86951137,47.37647629,8.55021667,484.92175293,2,8,1
1326900436.91264367,47.37647629,8.55021667,485.01763916,2,8,1
1326900436.96153116,47.37647629,8.55021572,485.00311279,2,8,1
1326900437.01249576,47.37647629,8.55021572,484.96246338,2,8,1
1326900437.06091857,47.37647629,8.55021572,484.92175293,2,8,1
1326900437.11269140,47.37647629,8.55021572,484.88101196,2,8,1
1326900437.16053891,47.37647629,8.55021572,484.99111938,2,8,1
1326900437.21351075,47.37647629,8.55021477,484.95980835,2,8,1
1326900437.26952243,47.37647629,8.55021477,484.91958618,2,8,1
1326900437.31252885,47.37647629,8.55021477,484.87124634,2,8,1
1326900437.36148643,47.37647629,8.55021477,484.83898926,2,8,1
1326900437.41287565,47.37647629,8.55021477,484.79864502,2,8,1
1326900437.46051764,47.37647629,8.55021477,484.92526245,2,8,1
1326900437.51350904,47.37647629,8.55021477,484.88549805,2,8,1
1326900437.56078100,47.37647629,8.55021477,484.84570312,2,8,1
1326900437.61276150,47.37647629,8.55021477,484.80587769,2,8,1
1326900437.66543555,47.37647629,8.55021477,484.91729736,2,8,1
1326900437.71350861,47.37647629,8.55021477,484.89022827,2,8,1
1326900437.76250005,47.37647629,8.55021477,484.85098267,2,8,1
1326900437.81354642,47.37647629,8.55021477,484.81167603,2,8,1
1326900437.86051297,47.37647629,8.55021477,484.77233887,2,8,1
1326900437.91356683,47.37647629,8.55021477,484.88256836,2,8,1
1326900437.96166730,47.37647629,8.55021381,484.85717773,2,8,1
1326900438.01257038,47.37647629,8.55021381,484.81842041,2,8,1
1326900438.06297970,47.37647629,8.55021381,484.77960205,2,8,1
1326900438.11267591,47.37647629,8.55021381,484.74075317,2,8,1
1326900438.16157389,47.37647629,8.55021381,484.84484863,2,8,1
1326900438.20952249,47.37647629,8.55021286,484.82226562,2,8,1
1326900438.26172829,47.37647629,8.55021286,484.78393555,2,8,1
1326900438.30949450,47.37647629,8.55021286,484.74560547,2,8,1
1326900438.36249900,47.37647629,8.55021286,484.70721436,2,8,1
1326900438.40961981,47.37647629,8.55021286,484.66876221,2,8,1
1326900438.46949482,47.37647629,8.55021286,484.77807617,2,8,1
1326900438.51049495,47.37647629,8.55021286,484.73257446,2,8,1
1326900438.56150413,47.37647629,8.55021286,484.70217896,2,8,1
1326900438.60950136,47.37647629,8.55021191,484.66418457,2,8,1
1326900438.66156125,47.37648010,8.55021286,484.75970459,2,8,1
1326900438.70948148,47.37647629,8.55021191,484.73214722,2,8,1
1326900438.76051831,47.37647629,8.55021191,484.69461060,2,8,1
1326900438.81349635,47.37647629,8.55021191,484.65698242,2,8,1
1326900438.86301422,47.37647629,8.55021191,484.61932373,2,8,1
1326900438.90949011,47.37647629,8.55021191,484.71514893,2,8,1
1326900438.96452546,47.37647629,8.55021286,484.69830322,2,8,1
1326900439.01324511,47.37647629,8.55021286,484.66119385,2,8,1
1326900439.06257606,47.37647629,8.55021286,484.62402344,2,8,1
1326900439.10952950,47.37647629,8.55021286,484.58682251,2,8,1
1326900439.16153669,47.37647629,8.55021191,484.54956055,2,8,1
1326900439.21359491,47.37647629,8.55021191,484.65057373,2,8,1
1326900439.26150942,47.37647629,8.55021191,484.61373901,2,8,1
1326900439.31339860,47.37647629,8.55021191,484.57690430,2,8,1
1326900439.36230206,47.37647629,8.55021191,484.54000854,2,8,1
1326900439.40957522,47.37647629,8.55021191,484.50311279,2,8,1
1326900439.46152878,47.37647629,8.55021191,484.60433960,2,8,1
1326900439.50949574,47.37647629,8.55021191,484.56790161,2,8,1
1326900439.56110692,47.37647629,8.55021191,484.53143311,2,8,1
1326900439.61365795,47.37647629,8.55021191,484.49493408,2,8,1
1326900439.66152191,47.37647629,8.55021095,484.45840454,2,8,1
1326900439.71253085,47.37647629,8.55021191,484.55627441,2,8,1
1326900439.76061821,47.37647629,8.55021191,484.52020264,2,8,1
1326900439.81254029,47.37647629,8.55021095,484.48410034,2,8,1
1326900439.86052132,47.37647629,8.55021095,484.44796753,2,8,1
1326900439.91351652,47.37647629,8.55021191,484.53341675,2,8,1
1326900439.96107793,47.37647629,8.55021095,484.50888062,2,8,1
1326900440.01252413,47.37647629,8.55021000,484.47317505,2,8,1
1326900440.06950903,47.37647629,8.55021000,484.43743896,2,8,1
1326900440.11364770,47.37647629,8.55021000,484.39450073,2,8,1
1326900440.16152000,47.37647629,8.55021000,484.48052979,2,8,1
1326900440.21275139,47.37647629,8.55021000,484.46102905,2,8,1
1326900440.26065898,47.37647629,8.55021000,484.42565918,2,8,1
1326900440.31349015,47.37647629,8.55021000,484.39028931,2,8,1
1326900440.36164713,47.37647629,8.55021000,484.35485840,2,8,1
1326900440.41250753,47.37647629,8.55021000,484.43060303,2,8,1
1326900440.47278404,47.37647629,8.55021000,484.40481567,2,8,1
1326900440.51259542,47.37647629,8.55021000,484.36273193,2,8,1
1326900440.56151414,47.37647629,8.55021000,484.33465576,2,8,1
1326900440.61348271,47.37647629,8.55021000,484.29949951,2,8,1
1326900440.66054249,47.37647629,8.55021000,484.37423706,2,8,1
1326900440.71349168,47.37647629,8.55021095,484.35354614,2,8,1
1326900440.76058555,47.37647629,8.55021095,484.31878662,2,8,1
1326900440.81270123,47.37647629,8.55021095,484.28399658,2,8,1
1326900440.86154032,47.37647629,8.55021095,484.24914551,2,8,1
1326900440.91267419,47.37647629,8.55021095,484.32153320,2,8,1
1326900440.96150422,47.37647629,8.55021095,484.29412842,2,8,1
1326900441.01313257,47.37647629,8.55021000,484.25961304,2,8,1
1326900441.06053019,47.37647629,8.55021000,484.22503662,2,8,1
1326900441.11352825,47.37648010,8.55021000,484.19042969,2,8,1
1326900441.16051769,47.37648010,8.55021095,484.26739502,2,8,1
1326900441.20960498,47.37648010,8.55021095,484.23318481,2,8,1
1326900441.26155663,47.37648010,8.55021095,484.19891357,2,8,1
1326900441.31261992,47.37648010,8.55021095,484.16461182,2,8,1
1326900441.36054540,47.37648010,8.55021095,484.13027954,2,8,1
1326900441.41252613,47.37648010,8.55021191,484.19873047,2,8,1
1326900441.46050763,47.37648010,8.55021095,484.17507935,2,8,1
1326900441.50955153,47.37648010,8.55021095,484.14108276,2,8,1
1326900441.56051135,47.37648010,8.55021095,484.10705566,2,8,1
1326900441.60956883,47.37648010,8.55021095,484.07299805,2,8,1
1326900441.66951108,47.37648010,8.55021191,484.14288330,2,6,1
1326900441.71134043,47.37648010,8.55021191,484.11209106,2,6,1
1326900441.76055837,47.37648010,8.55021191,484.08511353,2,6,1
1326900441.81290054,47.37648010,8.55021191,484.05133057,2,6,1
1326900441.86055279,47.37648010,8.55021191,484.01754761,2,6,1
1326900441.90949273,47.37648010,8.55021191,484.08636475,2,6,1
1326900441.96056676,47.37648010,8.55021095,484.06201172,2,6,1
1326900442.00967646,47.37648010,8.55021095,484.02853394,2,6,1
1326900442.05998135,47.37648010,8.55021095,483.99499512,2,6,1
1326900442.10952282,47.37648010,8.55021095,483.96142578,2,6,1
1326900442.16148496,47.37648010,8.55021095,484.03411865,2,6,1
1326900442.20948482,47.37648010,8.55021095,484.00085449,2,6,1
1326900442.26051331,47.37648010,8.55021095,483.96755981,2,6,1
1326900442.30951309,47.37648010,8.55021095,483.93423462,2,6,1
1326900442.36112189,47.37648010,8.55021095,483.90084839,2,6,1
1326900442.41351604,47.37648010,8.55021095,483.96362305,2,6,1
1326900442.46952629,47.37647629,8.55021095,483.92193604,2,6,1
1326900442.50952291,47.37647629,8.55021095,483.88214111,2,6,1
1326900442.56148577,47.37647629,8.55021095,483.85556030,2,6,1
1326900442.60953689,47.37647629,8.55021095,483.82229614,2,6,1
1326900442.66049957,47.37647629,8.55021286,483.89950562,2,6,1
1326900442.70951891,47.37647629,8.55021286,483.86666870,2,6,1
1326900442.76052690,47.37647629,8.55021286,483.83377075,2,6,1
1326900442.81193447,47.37647629,8.55021286,483.80084229,2,6,1
1326900442.86148596,47.37647629,8.55021286,483.76788330,2,6,1
1326900442.91109061,47.37647629,8.55021286,483.84075928,2,6,1
1326900442.96152687,47.37647629,8.55021286,483.80816650,2,6,1
1326900443.01295733,47.37647629,8.55021286,483.77554321,2,6,1
1326900443.06062603,47.37647629,8.55021286,483.74288940,2,6,1
1326900443.11350894,47.37647629,8.55021286,483.71017456,2,6,1
1326900443.16053391,47.37647629,8.55021381,483.76599121,2,6,1
1326900443.21355391,47.37647629,8.55021381,483.73352051,2,6,1
1326900443.26096344,47.37647629,8.55021381,483.70101929,2,6,1
1326900443.31253386,47.37647629,8.55021381,483.66842651,2,6,1
1326900443.36592102,47.37647629,8.55021381,483.63583374,2,6,1
1326900443.41347599,47.37647247,8.55021286,483.68283081,2,6,1
